{"data":{"norad_id":55347,"intl_designator":"2023-013S","name":"STARLINK-5663","alt_names":[],"object_type":"PAYLOAD","status":"ACTIVE","operator":null,"country":"US","launch_date":"2023-01-26","launch_site_code":"AFETR","launch_vehicle":null,"mission":null,"orbit_class":"UNKNOWN","rcs_meters":null,"size_class":null,"mass_kg":null,"dimensions":null,"purposes":["comms"],"wikipedia_slug":null,"has_3d_model":false,"image_url":null,"decayed_at":null,"tle_current":{"epoch":"2026-05-24T23:18:38.439072Z","epoch_age_seconds":80721,"freshness":"FRESH","line1":"1 55347U 23013S   26144.97127823 -.00000254  00000+0  28581-6 0  9990","line2":"2 55347  43.0041 232.2744 0001673 269.3887  90.6773 15.27574898183349","mean_motion":15.27574898,"eccentricity":0.0001673,"inclination_deg":43.0041,"raan_deg":232.2744,"arg_perigee_deg":269.3887,"mean_anomaly_deg":90.6773,"bstar":2.8581e-7,"rev_number":18334,"period_min":94.267063558412,"perigee_km":481.91649431585,"apogee_km":484.21225229536,"semimajor_km":6861.2013733056,"source":"CELESTRAK","updated_at":"2026-05-25T13:38:17.762853Z"}}}